EW0184 Weather Reports


time (UTC)temp
F
wind
direction
speed
knots
gust
knots
rain 1hr
in
rain 24hr
in
rain mn
in
humidity
%
barometer
mb
20260507213029 84 129 0.9 6.1 0.00 0.00 0.00 15 1007.7
20260507212533 84 111 1.7 6.1 0.00 0.00 0.00 15 1007.6
20260507212028 84 129 0.0 0.9 0.00 0.00 0.00 14 1007.7
20260507211524 85 25 0.0 2.6 0.00 0.00 0.00 14 1007.8
20260507211033 85 211 0.0 4.3 0.00 0.00 0.00 16 1008.1
20260507210529 85 205 0.0 4.3 0.00 0.00 0.00 16 1008.1
20260507210030 84 231 0.0 3.5 0.00 0.00 0.00 16 1008.0
20260507205539 84 252 0.0 2.6 0.00 0.00 0.00 15 1008.1
20260507205030 83 204 0.0 2.6 0.00 0.00 0.00 16 1008.1
20260507204524 83 114 0.9 2.6 0.00 0.00 0.00 16 1008.2
20260507204036 84 110 0.9 3.5 0.00 0.00 0.00 16 1008.3
20260507203528 84 115 0.9 2.6 0.00 0.00 0.00 16 1008.4
20260507203038 83 202 0.9 6.1 0.00 0.00 0.00 17 1008.4
20260507202531 82 159 1.7 6.1 0.00 0.00 0.00 17 1008.5
20260507202028 83 143 1.7 5.2 0.00 0.00 0.00 17 1008.7
20260507201535 83 231 1.7 6.1 0.00 0.00 0.00 18 1008.8
20260507201032 82 108 0.9 6.1 0.00 0.00 0.00 19 1008.7
20260507200526 82 143 0.9 4.3 0.00 0.00 0.00 18 1008.9
20260507200022 82 108 0.9 4.3 0.00 0.00 0.00 18 1009.0
20260507195533 82 110 0.0 4.3 0.00 0.00 0.00 18 1009.0
20260507195027 83 98 1.7 4.3 0.00 0.00 0.00 19 1009.2
20260507194533 82 224 0.0 3.5 0.00 0.00 0.00 20 1009.3
20260507194033 81 5 0.0 6.1 0.00 0.00 0.00 19 1009.4
20260507193528 82 165 1.7 4.3 0.00 0.00 0.00 19 1009.4
20260507193021 82 226 0.9 4.3 0.00 0.00 0.00 20 1009.6
20260507192530 81 105 0.9 4.3 0.00 0.00 0.00 21 1009.7
20260507192028 80 248 0.0 3.5 0.00 0.00 0.00 21 1009.7
20260507191523 80 129 0.9 3.5 0.00 0.00 0.00 20 1009.9
20260507191034 80 93 0.0 3.5 0.00 0.00 0.00 20 1010.0
20260507190528 80 110 0.9 4.3 0.00 0.00 0.00 22 1010.1
20260507190037 81 113 0.9 4.3 0.00 0.00 0.00 20 1010.1
20260507185534 81 149 0.9 3.5 0.00 0.00 0.00 21 1010.3
20260507185032 82 162 0.9 4.3 0.00 0.00 0.00 21 1010.4
20260507184544 81 271 0.0 4.3 0.00 0.00 0.00 21 1010.4
20260507184031 81 260 0.0 2.6 0.00 0.00 0.00 22 1010.4
20260507183526 80 219 0.0 2.6 0.00 0.00 0.00 23 1010.5
20260507183041 80 218 0.0 5.2 0.00 0.00 0.00 22 1010.6
20260507182530 80 153 0.9 5.2 0.00 0.00 0.00 22 1010.7
20260507182025 80 285 0.0 5.2 0.00 0.00 0.00 23 1010.7
20260507181535 80 190 0.0 5.2 0.00 0.00 0.00 22 1010.8
20260507181032 80 155 0.9 5.2 0.00 0.00 0.00 24 1010.8
20260507180524 80 211 0.9 2.6 0.00 0.00 0.00 24 1011.0
20260507180024 79 145 0.0 2.6 0.00 0.00 0.00 23 1011.1
20260507175534 78 219 0.0 4.3 0.00 0.00 0.00 26 1011.2
20260507175030 78 112 0.0 4.3 0.00 0.00 0.00 26 1011.2
20260507174531 77 229 0.0 4.3 0.00 0.00 0.00 26 1011.2
20260507174037 77 207 0.9 3.5 0.00 0.00 0.00 26 1011.3
20260507173531 76 252 0.0 6.1 0.00 0.00 0.00 28 1011.4
20260507173039 76 110 2.6 6.1 0.00 0.00 0.00 26 1011.4
20260507172531 76 152 0.9 3.5 0.00 0.00 0.00 26 1011.5
20260507172025 76 301 1.7 3.5 0.00 0.00 0.00 27 1011.4
20260507171521 76 172 0.0 2.6 0.00 0.00 0.00 27 1011.8
20260507171032 75 22 0.0 4.3 0.00 0.00 0.00 30 1011.8
20260507170527 74 105 0.0 3.5 0.00 0.00 0.00 28 1011.9
20260507170023 75 117 0.9 3.5 0.00 0.00 0.00 26 1012.0
20260507165531 75 115 0.0 1.7 0.00 0.00 0.00 28 1012.0
20260507165028 74 16 0.0 1.7 0.00 0.00 0.00 29 1012.1
20260507164533 73 4 0.0 2.6 0.00 0.00 0.00 29 1012.2
20260507164034 72 359 0.0 4.3 0.00 0.00 0.00 28 1012.2
20260507163525 72 193 0.9 4.3 0.00 0.00 0.00 28 1012.3
20260507163034 72 149 0.0 2.6 0.00 0.00 0.00 30 1012.4
20260507162530 71 294 0.0 3.5 0.00 0.00 0.00 29 1012.4
20260507162026 71 108 0.0 3.5 0.00 0.00 0.00 30 1012.5
20260507161521 70 176 0.0 3.5 0.00 0.00 0.00 31 1012.6
20260507161032 70 67 0.0 2.6 0.00 0.00 0.00 33 1012.6
20260507160528 69 274 0.9 4.3 0.00 0.00 0.00 32 1012.8
20260507160026 69 32 1.7 6.1 0.00 0.00 0.00 33 1012.9
20260507155532 68 6 0.0 6.1 0.00 0.00 0.00 34 1012.9
20260507155028 68 300 0.9 3.5 0.00 0.00 0.00 34 1013.0
20260507154524 67 269 0.0 2.6 0.00 0.00 0.00 35 1013.0
20260507154035 66 39 0.0 5.2 0.00 0.00 0.00 36 1013.0
20260507153531 65 334 1.7 5.2 0.00 0.00 0.00 36 1013.1
20260507153033 65 54 0.9 4.3 0.00 0.00 0.00 38 1013.0
20260507152522 64 11 0.0 4.3 0.00 0.00 0.00 39 1013.1
20260507152032 63 9 0.9 6.1 0.00 0.00 0.00 40 1013.2
20260507151531 63 41 0.0 6.1 0.00 0.00 0.00 41 1013.2
20260507151021 62 15 0.9 5.2 0.00 0.00 0.00 42 1013.2
20260507150533 62 13 0.9 4.3 0.00 0.00 0.00 43 1013.4
20260507150031 62 41 0.9 5.2 0.00 0.00 0.00 44 1013.4
20260507145522 61 309 0.9 5.2 0.00 0.00 0.00 44 1013.4
20260507145032 60 346 0.0 2.6 0.00 0.00 0.00 45 1013.5
20260507144534 60 43 0.0 2.6 0.00 0.00 0.00 45 1013.6
20260507144022 60 37 0.0 2.6 0.00 0.00 0.00 46 1013.6
20260507143530 59 41 0.0 4.3 0.00 0.00 0.00 46 1013.7
20260507143030 59 46 0.0 4.3 0.00 0.00 0.00 46 1013.6
20260507142522 59 82 0.9 6.1 0.00 0.00 0.00 46 1013.7
20260507142033 58 49 0.9 6.1 0.00 0.00 0.00 46 1013.7
20260507141529 58 50 0.9 4.3 0.00 0.00 0.00 46 1013.7
20260507141024 58 351 0.0 5.2 0.00 0.00 0.00 46 1013.7
20260507140533 58 329 1.7 5.2 0.00 0.00 0.00 46 1013.7
20260507140027 57 29 0.0 4.3 0.00 0.00 0.00 47 1013.7
20260507135522 57 309 0.9 6.1 0.00 0.00 0.00 47 1013.7
20260507135031 57 91 0.9 6.1 0.00 0.00 0.00 47 1013.6
20260507134526 57 41 0.0 7.0 0.00 0.00 0.00 47 1013.5
20260507134035 56 51 0.9 7.0 0.00 0.00 0.00 47 1013.5
20260507133531 56 72 1.7 7.0 0.00 0.00 0.00 48 1013.4
20260507133027 56 50 0.0 7.8 0.00 0.00 0.00 49 1013.3
20260507132535 55 61 0.0 7.8 0.00 0.00 0.00 49 1013.3
20260507132032 55 46 0.9 4.3 0.00 0.00 0.00 50 1013.2
20260507131524 54 17 0.9 7.0 0.00 0.00 0.00 52 1013.1
20260507131036 53 63 0.9 7.0 0.00 0.00 0.00 54 1013.1
20260507130533 51 122 0.0 4.3 0.00 0.00 0.00 54 1013.1
20260507130028 50 33 0.0 2.6 0.00 0.00 0.00 52 1013.2
20260507125523 50 68 0.0 1.7 0.00 0.00 0.00 51 1013.2
20260507125031 50 113 0.0 0.9 0.00 0.00 0.00 50 1013.1
20260507124535 50 113 0.0 1.7 0.00 0.00 0.00 50 1013.1
20260507124024 50 114 0.9 2.6 0.00 0.00 0.00 53 1013.1
20260507123532 50 105 0.0 2.6 0.00 0.00 0.00 54 1013.0
20260507123025 50 24 0.0 0.0 0.00 0.00 0.00 52 1012.9
20260507122522 50 25 0.0 0.9 0.00 0.00 0.00 53 1012.9
20260507122032 50 25 0.0 1.7 0.00 0.00 0.00 55 1012.9
20260507121524 49 25 0.0 1.7 0.00 0.00 0.00 55 1012.8
20260507121032 49 42 0.0 0.9 0.00 0.00 0.00 55 1012.7
20260507120526 49 124 0.0 0.0 0.00 0.00 0.00 55 1012.7
20260507120022 48 124 0.0 0.9 0.00 0.00 0.00 55 1012.8
20260507115533 48 124 0.0 0.9 0.00 0.00 0.00 53 1012.7
20260507115028 48 124 0.0 0.9 0.00 0.00 0.00 51 1012.6
20260507114532 49 124 0.0 0.0 0.00 0.00 0.00 50 1012.6
20260507114034 49 124 0.0 0.0 0.00 0.00 0.00 49 1012.6
20260507113529 50 124 0.0 0.0 0.00 0.00 0.00 47 1012.6
20260507113043 50 124 0.0 0.9 0.00 0.00 0.00 46 1012.6
20260507112535 51 124 0.0 0.9 0.00 0.00 0.00 46 1012.6
20260507112023 51 132 0.0 0.9 0.00 0.00 0.00 45 1012.7
20260507111540 51 359 0.0 2.6 0.00 0.00 0.00 44 1012.5
20260507111028 51 27 0.0 2.6 0.00 0.00 0.00 44 1012.6
20260507110525 52 32 0.0 0.0 0.00 0.00 0.00 44 1012.6
20260507110035 52 32 0.0 0.0 0.00 0.00 0.00 42 1012.5
20260507105530 52 32 0.0 0.0 0.00 0.00 0.00 42 1012.5
20260507105025 53 28 0.0 0.0 0.00 0.00 0.00 41 1012.6
20260507104555 54 28 0.0 0.0 0.00 0.00 0.00 40 1012.5
20260507104033 54 29 0.0 0.9 0.00 0.00 0.00 38 1012.4
20260507103541 55 32 0.0 0.9 0.00 0.00 0.00 38 1012.4
20260507103029 55 40 0.0 2.6 0.00 0.00 0.00 36 1012.4
20260507102524 55 39 0.0 0.9 0.00 0.00 0.00 35 1012.4
20260507102035 54 65 0.0 0.9 0.00 0.00 0.00 33 1012.4
20260507101529 54 11 0.0 2.6 0.00 0.00 0.00 32 1012.4
20260507101025 55 4 0.0 2.6 0.00 0.00 0.00 32 1012.3
20260507100521 55 19 0.0 0.9 0.00 0.00 0.00 31 1012.3
20260507100031 55 19 0.0 2.6 0.00 0.00 0.00 31 1012.2
20260507095526 56 37 0.0 2.6 0.00 0.00 0.00 30 1012.1
20260507095021 56 255 0.0 0.9 0.00 0.00 0.00 31 1012.0
20260507094534 57 273 0.0 2.6 0.00 0.00 0.00 29 1012.0
20260507094027 57 18 0.0 3.5 0.00 0.00 0.00 26 1012.0
20260507093539 57 11 0.0 5.2 0.00 0.00 0.00 26 1012.0
20260507093034 57 19 0.9 6.1 0.00 0.00 0.00 27 1012.0
20260507092526 57 68 0.0 7.0 0.00 0.00 0.00 28 1012.0
20260507092037 56 307 2.6 7.0 0.00 0.00 0.00 30 1012.0
20260507091536 54 15 0.0 2.6 0.00 0.00 0.00 33 1012.0
20260507091025 54 48 0.0 0.9 0.00 0.00 0.00 33 1012.0
20260507090537 54 294 0.0 0.9 0.00 0.00 0.00 35 1012.0
20260507090033 54 34 0.0 0.9 0.00 0.00 0.00 32 1011.9
20260507085527 54 34 0.0 1.7 0.00 0.00 0.00 34 1011.9
20260507085022 53 27 0.0 1.7 0.00 0.00 0.00 34 1011.8
20260507084542 53 21 0.0 1.7 0.00 0.00 0.00 33 1011.7
20260507084029 52 339 0.0 0.0 0.00 0.00 0.00 35 1011.8
20260507083542 53 339 0.0 0.0 0.00 0.00 0.00 35 1011.8
20260507083027 53 340 0.0 0.0 0.00 0.00 0.00 35 1011.8
20260507082535 54 340 0.0 0.9 0.00 0.00 0.00 31 1011.8
20260507082030 54 340 0.0 0.9 0.00 0.00 0.00 30 1011.8
20260507081535 55 341 0.0 0.0 0.00 0.00 0.00 30 1011.8
20260507081023 56 340 0.0 0.0 0.00 0.00 0.00 29 1011.8
20260507080532 56 340 0.0 0.0 0.00 0.00 0.00 26 1011.8
20260507080029 56 340 0.0 0.0 0.00 0.00 0.00 26 1011.7
20260507075524 57 340 0.0 0.0 0.00 0.00 0.00 25 1011.7
20260507075037 57 340 0.0 0.9 0.00 0.00 0.00 25 1011.5
20260507074531 57 340 0.0 0.9 0.00 0.00 0.00 25 1011.5
20260507074025 57 21 0.0 0.9 0.00 0.00 0.00 25 1011.6
20260507073536 57 348 0.0 0.0 0.00 0.00 0.00 25 1011.9
20260507073026 58 348 0.0 0.9 0.00 0.00 0.00 24 1011.9
20260507072524 58 348 0.0 0.9 0.00 0.00 0.00 23 1011.8
20260507072038 58 20 0.0 0.9 0.00 0.00 0.00 24 1011.9
20260507071529 59 350 0.0 0.0 0.00 0.00 0.00 22 1011.9
20260507071028 60 350 0.0 0.0 0.00 0.00 0.00 23 1012.0
20260507070535 61 350 0.0 0.9 0.00 0.00 0.00 21 1012.1
20260507070030 62 346 0.0 0.9 0.00 0.00 0.00 20 1012.0
20260507065527 63 40 0.0 0.9 0.00 0.00 0.00 19 1012.0
20260507065036 64 36 0.0 0.9 0.00 0.00 0.00 19 1011.8
20260507064531 64 351 0.0 2.6 0.00 0.00 0.00 19 1011.8
20260507064025 64 343 0.0 2.6 0.00 0.00 0.00 20 1011.8
20260507063535 63 300 0.0 2.6 0.00 0.00 0.00 21 1011.9
20260507063029 61 41 0.0 1.7 0.00 0.00 0.00 21 1011.8
20260507062525 62 328 0.0 0.9 0.00 0.00 0.00 21 1011.8
20260507062023 63 329 0.0 1.7 0.00 0.00 0.00 21 1012.0
20260507061538 63 328 0.0 1.7 0.00 0.00 0.00 21 1012.0
20260507061030 63 42 0.0 7.0 0.00 0.00 0.00 22 1012.0
20260507060523 59 104 1.7 7.0 0.00 0.00 0.00 25 1012.0
20260507060035 56 248 0.0 0.9 0.00 0.00 0.00 27 1012.0
20260507055530 56 193 0.0 0.9 0.00 0.00 0.00 29 1011.9
20260507055042 56 188 0.0 0.9 0.00 0.00 0.00 28 1011.8
20260507054531 57 190 0.0 0.9 0.00 0.00 0.00 27 1011.8
20260507054025 57 239 0.0 0.9 0.00 0.00 0.00 28 1011.7
20260507053535 57 239 0.0 0.9 0.00 0.00 0.00 27 1011.5
20260507053031 58 240 0.0 0.9 0.00 0.00 0.00 25 1011.5
20260507052525 58 239 0.0 0.9 0.00 0.00 0.00 24 1011.4
20260507052036 59 240 0.0 0.0 0.00 0.00 0.00 22 1011.5
20260507051532 60 240 0.0 0.9 0.00 0.00 0.00 21 1011.5
20260507051030 61 149 0.0 0.0 0.00 0.00 0.00 19 1011.5
20260507050523 63 149 0.0 0.0 0.00 0.00 0.00 19 1011.6
20260507050032 64 149 0.0 0.9 0.00 0.00 0.00 17 1011.6
20260507045530 64 123 0.0 0.9 0.00 0.00 0.00 17 1011.6
20260507045039 65 113 0.0 1.7 0.00 0.00 0.00 16 1011.4
20260507044530 65 308 0.0 2.6 0.00 0.00 0.00 16 1011.3
20260507044027 65 82 0.0 2.6 0.00 0.00 0.00 16 1011.2
20260507043527 64 77 0.0 3.5 0.00 0.00 0.00 17 1011.1
20260507043048 64 70 0.0 3.5 0.00 0.00 0.00 18 1011.0
20260507042532 64 11 0.0 2.6 0.00 0.00 0.00 18 1010.8
20260507042026 64 240 0.0 2.6 0.00 0.00 0.00 18 1010.9
20260507041521 64 342 0.0 1.7 0.00 0.00 0.00 18 1010.8
20260507041032 64 76 0.0 3.5 0.00 0.00 0.00 18 1010.9
20260507040528 64 118 0.0 3.5 0.00 0.00 0.00 18 1010.8
20260507040021 63 255 0.0 3.5 0.00 0.00 0.00 19 1010.8
20260507035533 63 143 0.0 1.7 0.00 0.00 0.00 18 1010.7
20260507035027 63 275 0.0 0.9 0.00 0.00 0.00 17 1010.7
20260507034528 64 129 0.0 0.9 0.00 0.00 0.00 16 1010.6
20260507034034 64 117 0.0 0.9 0.00 0.00 0.00 16 1010.6
20260507033529 65 133 0.0 0.0 0.00 0.00 0.00 17 1010.5
20260507033030 65 133 0.0 0.9 0.00 0.00 0.00 15 1010.4
20260507032536 66 132 0.0 0.9 0.00 0.00 0.00 15 1010.3
20260507032031 66 226 0.0 1.7 0.00 0.00 0.00 15 1010.3
20260507031527 66 166 0.0 1.7 0.00 0.00 0.00 15 1010.2
20260507031023 67 77 0.0 0.9 0.00 0.00 0.00 15 1010.2
20260507030538 67 59 0.0 0.9 0.00 0.00 0.00 15 1010.1
20260507030026 68 60 0.0 1.7 0.00 0.00 0.00 15 1010.0
20260507025523 68 54 0.0 2.6 0.00 0.00 0.00 14 1009.9
20260507025037 69 333 0.0 2.6 0.00 0.00 0.00 15 1009.8
20260507024524 69 231 0.0 1.7 0.00 0.00 0.00 14 1009.6
20260507024036 69 269 0.0 3.5 0.00 0.00 0.00 14 1009.4
20260507023532 69 255 0.0 3.5 0.00 0.00 0.00 13 1009.3
20260507023026 69 250 0.0 3.5 0.00 0.00 0.00 14 1009.3
20260507022521 69 242 0.9 3.5 0.00 0.00 0.00 13 1009.2
20260507022035 69 250 0.9 3.5 0.00 0.00 0.00 13 1009.3
20260507021527 69 277 0.0 3.5 0.00 0.00 0.00 13 1009.2
20260507021025 70 236 0.0 3.5 0.00 0.00 0.00 14 1009.1
20260507020534 70 214 0.0 2.6 0.00 0.00 0.00 13 1009.1
20260507020045 70 252 0.0 1.7 0.00 0.00 0.00 13 1009.1
20260507015525 70 200 0.0 2.6 0.00 0.00 0.00 13 1009.1
20260507015036 71 203 0.0 3.5 0.00 0.00 0.00 13 1009.1
20260507014527 71 295 0.0 3.5 0.00 0.00 0.00 13 1009.1
20260507014037 71 212 0.0 3.5 0.00 0.00 0.00 13 1009.0
20260507013530 72 351 0.0 5.2 0.00 0.00 0.00 13 1008.9
20260507013027 72 224 0.9 6.1 0.00 0.00 0.00 12 1008.9
20260507012521 72 249 0.9 6.1 0.00 0.00 0.00 12 1008.9
20260507012031 73 259 0.0 5.2 0.00 0.00 0.00 12 1008.8
20260507011539 73 256 0.0 5.2 0.00 0.00 0.00 12 1008.8
20260507011022 73 226 0.0 4.3 0.00 0.00 0.00 12 1008.8
20260507010534 73 109 0.0 7.0 0.00 0.00 0.00 12 1008.7
20260507010033 73 281 0.9 7.0 0.00 0.00 0.00 12 1008.6
20260507005524 74 222 0.0 4.3 0.00 0.00 0.00 13 1008.6
20260507005032 74 181 0.9 5.2 0.00 0.00 0.00 12 1008.5
20260507004526 74 255 0.9 5.2 0.00 0.00 0.00 12 1008.5
20260507004021 74 249 1.7 5.2 0.00 0.00 0.00 11 1008.4
20260507003533 75 267 0.9 5.2 0.00 0.00 0.00 12 1008.4
20260507003027 75 285 0.9 4.3 0.00 0.00 0.00 12 1008.3
20260507002523 76 260 0.0 3.5 0.00 0.00 0.00 13 1008.3
20260507002034 76 186 0.9 4.3 0.00 0.00 0.00 12 1008.3
20260507001602 76 102 0.9 4.3 0.00 0.00 0.00 12 1008.3
20260507001028 77 246 1.7 4.3 0.00 0.00 0.00 11 1008.3
20260507000521 77 298 0.9 7.0 0.00 0.00 0.00 12 1008.3
20260507000040 77 211 1.7 7.0 0.00 0.00 0.00 12 1008.3
20260506235526 77 233 0.9 5.2 0.00 0.00 0.00 12 1008.2
20260506235031 77 233 0.9 7.0 0.00 0.00 0.00 12 1008.1
20260506234529 78 260 1.7 7.0 0.00 0.00 0.00 12 1008.2
20260506234023 78 158 1.7 5.2 0.00 0.00 0.00 12 1008.1
20260506233535 78 214 0.9 4.3 0.00 0.00 0.00 12 1008.2
20260506233030 78 233 0.9 7.8 0.00 0.00 0.00 12 1008.1
20260506232525 78 252 0.0 6.1 0.00 0.00 0.00 11 1008.2
20260506232035 78 350 1.7 6.1 0.00 0.00 0.00 11 1008.2
20260506231531 78 219 2.6 9.6 0.00 0.00 0.00 12 1008.2
20260506231026 78 24 1.7 9.6 0.00 0.00 0.00 12 1008.3
20260506230526 78 209 1.7 5.2 0.00 0.00 0.00 12 1008.2
20260506230050 78 68 2.6 5.2 0.00 0.00 0.00 11 1008.3
20260506225528 79 282 0.9 7.0 0.00 0.00 0.00 12 1008.3
20260506225023 79 257 0.9 7.0 0.00 0.00 0.00 12 1008.4
20260506224532 78 207 0.0 6.1 0.00 0.00 0.00 13 1008.3
20260506224027 78 173 1.7 6.1 0.00 0.00 0.00 12 1008.4
20260506223539 79 282 2.6 7.8 0.00 0.00 0.00 12 1008.3
20260506223032 79 23 4.3 7.8 0.00 0.00 0.00 11 1008.3
20260506222532 79 161 0.9 6.1 0.00 0.00 0.00 13 1008.2
20260506222030 79 160 0.0 7.0 0.00 0.00 0.00 13 1008.4
20260506221535 79 219 1.7 7.0 0.00 0.00 0.00 13 1008.3
20260506221030 79 295 0.9 6.1 0.00 0.00 0.00 14 1008.4
20260506220526 79 9 0.9 6.1 0.00 0.00 0.00 13 1008.4
20260506220021 79 239 1.7 5.2 0.00 0.00 0.00 15 1008.4
20260506215535 79 123 1.7 9.6 0.00 0.00 0.00 13 1008.4
20260506215029 79 228 1.7 9.6 0.00 0.00 0.00 14 1008.5
20260506214525 79 256 2.6 5.2 0.00 0.00 0.00 14 1008.5
20260506214033 79 294 1.7 6.1 0.00 0.00 0.00 15 1008.5
20260506213528 79 169 1.7 10.4 0.00 0.00 0.00 15 1008.6